Regional Weather Roundup
Issued by NWS

Home | Current Version | Previous Version | Text Only | Print | Product List | Glossary Off
Versions: 1 2 3 4 5 6 7 8 9 10 11 12 13 14 15 16 17 18 19 20 21 22 23 24 25 26 27 28 29 30 31 32 33 34 35 36 37 38 39 40 41 42 43 44 45 46 47 48 49 50

000
ASUS43 KFSD 241602
RWRSD

WEATHER ROUNDUP FOR SOUTH DAKOTA
NATIONAL WEATHER SERVICE SIOUX FALLS SD
1100 AM CDT THU APR 24 2014

NOTE: "FAIR" INDICATES FEW OR NO CLOUDS BELOW 12,000 FEET WITH NO
SIGNIFICANT WEATHER AND/OR OBSTRUCTIONS TO VISIBILITY.


SDZ001>005-009-010-012>017-241700-
NORTHWEST AND NORTH CENTRAL SOUTH DAKOTA

CITY           SKY/WX    TMP DP  RH WIND       PRES   REMARKS
BUFFALO          N/A     52  26  36 W23       29.77S
FAITH            N/A     54  30  40 NW25G33   29.82S
MOBRIDGE       SUNNY     57  29  34 NW17      29.74F
$$

SDZ012>016-024>037-041>051-057-063-072>074-241700-
SOUTHWEST AND SOUTH CENTRAL SOUTH DAKOTA

CITY           SKY/WX    TMP DP  RH WIND       PRES   REMARKS
RAPID CTY ARPT SUNNY     57  22  25 N13G21    29.85S
PIERRE         SUNNY     59  29  31 NW21      29.79F
CUSTER         SUNNY     48  16  27 W14G22    29.87S
ELLSWORTH AFB  SUNNY     54  23  29 N14       29.85S
PHILIP         SUNNY     60  23  24 NW21G26   29.84R
PINE RIDGE     SUNNY     53  25  33 W14G21    29.89F
WINNER         FAIR      63  22  20 NW21G31   29.81S
$$

SDZ004>011-016>023-039-040-241700-
NORTHEAST SOUTH DAKOTA

CITY           SKY/WX    TMP DP  RH WIND       PRES   REMARKS
ABERDEEN       MOSUNNY   53  41  63 NW7       29.73F
WATERTOWN      CLOUDY    43  42  97 NW8       29.72R
SISSETON         N/A     40  40 100 CALM      29.72F
$$

SDZ017-020-022-023-036>040-048>070-241700-
SOUTHEAST SOUTH DAKOTA

CITY           SKY/WX    TMP DP  RH WIND       PRES   REMARKS
SIOUX FALLS    CLOUDY    50  46  86 N18G24    29.71S
HURON          MOSUNNY   58  37  45 NW14      29.74F
CHAMBERLAIN      N/A     61  28  28 NW18G30   29.78F
MITCHELL       SUNNY     58  43  57 N16       29.75F
YANKTON          N/A     55  46  71 NW21      29.76R
$$

ABBREVIATIONS USED IN REMARKS
   TC - TEMPERATURE IN CELSIUS
  WCI - WIND CHILL INDEX
   HX - HEAT INDEX
  VSB - VISIBILITY




USA.gov is the U.S. government's official web portal to all federal, state and local government web resources and services.